Find Kosmos-792

NORAD ID: 8608 Int'l Des: 1976-008 Owner: GUKOSR Country: SU operational
LEOCIRCULAR

实时位置

正在加载3D地球...

关于 Kosmos-792

正在加载描述...

即将过境

Passes for default location (London). Set your location on the main map for personalized predictions.

高度历史

Loading altitude history...

两行轨道根数

1 8608U 76008B 26105.90502133 -.00000027 00000-0 -70287-4 0 9999
2 8608 74.0546 67.3533 0035465 217.6107 206.4678 12.50420711292115
Epoch: Apr 15, 2026 • Age: 12 hours

当前状态

高度 1442.2 km
速度 7.15 km/s
星下点 -12.96°S, 103.09°W
类型 other

Most Searched